Overview Statistics Trail Chart Weather Telemetry Raw packets
 

This is the latest recevied weather packets stored in our database for station/object 4S6DRJ-13. If no packets are shown the sender has not sent any weather packets the latest 10 day(s).

<< 242 243 244 245 246 247 248 >>
Time Temp. Humidity Pressure Rain* Wind** Luminosity Snow
1788110585 28.33° C 84% 1011 hPa 0 mm 0.89 m/s, 238° 0 W/m² -
1788110524 28.33° C 84% 1010.8 hPa 0 mm 0.45 m/s, 225° 0 W/m² -
1788110463 28.33° C 84% 1011.1 hPa 0 mm 0.45 m/s, 204° 0 W/m² -
1788110402 28.33° C 84% 1010.9 hPa 0 mm 1.34 m/s, 251° 0 W/m² -
1788110341 27.78° C 84% 1011.1 hPa 0 mm 0 m/s 0 W/m² -
1788110280 27.78° C 84% 1011 hPa 0 mm 0.45 m/s, 231° 0 W/m² -
1788110219 27.78° C 84% 1011.1 hPa 0 mm 0.45 m/s, 277° 0 W/m² -
1788110158 28.33° C 84% 1010.8 hPa 0 mm 0.89 m/s, 236° 0 W/m² -
1788110097 28.33° C 84% 1011 hPa 0 mm 0.89 m/s, 243° 0 W/m² -
1788110036 28.33° C 83% 1011.1 hPa 0 mm 0.45 m/s, 259° 0 W/m² -
1788109975 28.33° C 83% 1010.9 hPa 0 mm 0.45 m/s, 233° 0 W/m² -
1788109914 28.33° C 83% 1011.2 hPa 0 mm 0.45 m/s, 229° 0 W/m² -
1788109853 28.33° C 83% 1011.2 hPa 0 mm 0.45 m/s, 146° 0 W/m² -
1788109792 28.33° C 83% 1011.1 hPa 0 mm 1.79 m/s, 262° 0 W/m² -
1788109731 28.33° C 83% 1011.1 hPa 0 mm 0.89 m/s, 148° 0 W/m² -
1788109670 28.33° C 83% 1011.1 hPa 0 mm 1.79 m/s, 320° 0 W/m² -
1788109609 28.33° C 83% 1011.2 hPa 0 mm 1.79 m/s, 202° 0 W/m² -
1788109548 28.33° C 83% 1011.2 hPa 0 mm 0.45 m/s, 213° 0 W/m² -
1788109487 28.33° C 83% 1011.4 hPa 0 mm 0.89 m/s, 259° 0 W/m² -
1788109426 28.33° C 83% 1011.5 hPa 0 mm 0.45 m/s, 232° 0 W/m² -
1788109365 28.33° C 83% 1011 hPa 0 mm 1.79 m/s, 203° 0 W/m² -
1788109305 28.33° C 83% 1011.2 hPa 0 mm 1.34 m/s, 256° 0 W/m² -
1788109243 28.33° C 83% 1011.3 hPa 0 mm 0.89 m/s, 249° 0 W/m² -
1788109182 28.33° C 83% 1011.2 hPa 0 mm 1.34 m/s, 205° 0 W/m² -
1788109121 28.33° C 83% 1011.2 hPa 0 mm 0.45 m/s, 208° 0 W/m² -

* Rain latest hour (hover to see other rain measurements)
** Current wind speed in m/s (hover to see current wind gust speed)